sat.trackr.live / text

‹ back to catalog

STARLINK-31187

NORAD 58790 · 2024-012D

PAYLOAD ACTIVE UNKNOWN

§ Identity

Operator
Country
US
Launch date
2024-01-15
Launch site
AFETR
Launch vehicle
Mass (kg)
RCS (m²)

Purposes: comms

External: N2YO · Heavens-Above · Gunter

§ Orbital elements

Epoch: 2026-09-19T23:09:35.567136Z

Period
94.27 min
Inclination
43.0025°
Eccentricity
0.0001331
Mean motion
15.27575965 rev/d
Perigee alt
482.1 km
Apogee alt
484.0 km
Semi-major
6,861.2 km
B*
1.7786e-5
RAAN
148.4454°
Arg perigee
266.6147°
Mean anomaly
93.4552°
Rev number
15,094

§ Raw data

STARLINK-311871 58790U 24012D   26262.96499499  .00000227  00000+0  17786-4 0  99982 58790  43.0025 148.4454 0001331 266.6147  93.4552 15.27575965150944

JSON: /api/v1/satellites/58790 · /tle

For live sub-satellite position, see the globe view (requires WebGL).

§ Visibility from observer

Set your observer location to see the next 7 days of passes ≥ 10°. The values pass through the URL so the page stays shareable.

No JS? Fill the form by hand. The geolocation button needs JavaScript.